[[{"header":{"parameterUnit":"m.s-1","parameterCategory":1,"la1":30.2991,"la2":30.254,"lo1":-89.0895,"lo2":-89.0444,"dy":0.0017,"dx":0.0017,"nx":28,"ny":28,"refTime":"2025-05-29T21:00:00:Z","depth":0,"parameterNumber":2,"parameterNumberName":"U-component_of_WINDS"},"data":[0,0,0,0,0,0,0,0,0,0,0,0,0,0,0,0,0,0,0,0,0,0,0,0,0,0,0,0,0,0,0,0,0,0,0,0,0,0,0,0,0,0,0,0,0,0,0,0,0,0,0,0,0,0,0,0,0,0,4.0188,4.0189,0,4.0319,4.032,4.0322,4.0265,4.0262,4.0259,4.0256,4.0392,4.0399,4.0405,0,0,0,0,0,0,0,0,0,0,0,0,0,3.989,3.9896,4.0187,4.0189,4.0191,4.0318,4.032,4.0322,4.0266,4.0262,4.0258,4.0254,4.039,4.0398,4.0406,0,0,0,0,0,0,0,0,0,0,0,0,0,4.002,3.9898,4.0187,4.0178,4.0179,4.0318,4.032,4.0322,4.0267,4.0262,4.0257,4.0253,4.0387,4.0397,4.0407,4.0563,0,0,4.0437,4.0441,0,0,0,0,0,0,0,0,4.0013,4.0031,4.0178,4.0179,4.018,4.0271,4.0265,4.0403,4.0268,4.0233,4.0256,4.025,4.0356,4.0368,4.0403,4.057,4.0576,4.0438,4.0444,4.0448,4.0451,0,0,0,0,0,0,0,4.0004,4.0025,4.0239,4.018,4.0181,4.0168,4.0181,4.0291,4.032,4.0236,4.0232,4.0248,4.0355,4.0394,4.0406,4.0578,4.0438,4.0446,4.0452,4.0456,4.0878,4.0883,0,0,0,0,0,0,3.9995,4.0018,4.0235,4.0243,4.0083,4.0177,4.0192,4.0246,4.0318,4.0325,4.0252,4.0245,4.0379,4.0394,4.041,4.0597,4.0448,4.0457,4.0463,4.0873,4.0879,4.0885,0,0,0,0,0,0,3.9989,4.0015,4.023,4.013,4.0156,4.0187,4.0249,4.0251,4.0289,4.0331,4.0336,4.0286,4.0376,4.0396,4.0525,4.0601,4.0462,4.0471,4.0867,4.0875,4.0882,4.0973,0,0,0,0,0,0,3.998,4.0013,4.0072,4.0131,4.0162,4.0343,4.0254,4.0257,4.0307,4.0299,4.0364,4.037,4.0374,4.0511,4.0535,4.0612,4.0478,4.086,4.087,4.088,4.0963,4.0983,4.1,0,0,0,0,0,3.997,4.0093,4.0076,4.0102,4.0237,4.0347,4.0364,4.0366,4.0313,4.0373,4.0399,4.0368,4.0589,4.0525,4.0551,4.0633,4.0855,4.0868,4.0879,4.0955,4.0979,4.1,0,0,0,0,0,0,4.0043,4.0101,4.0082,4.0228,4.0283,4.0337,4.0413,4.0391,4.0463,4.0452,4.0452,4.0467,4.06,4.0629,4.0556,4.0788,4.0714,4.0732,4.0763,4.0786,4.0804,4.0794,4.0487,0,0,0,0,0,4.0076,4.016,4.0207,4.0331,4.036,4.0382,4.043,4.0426,4.0483,4.0506,4.0542,4.0599,4.0681,4.0736,4.0814,4.0968,4.0981,4.1037,4.1055,4.107,4.1085,4.1167,4.1193,4.0924,4.0924,4.0924,0,0,4.0146,4.0188,4.0241,4.0347,4.0389,4.0476,4.0402,4.0498,4.0563,4.0521,4.0644,4.0673,4.0737,4.0878,4.0943,4.0907,4.1162,4.1085,4.1097,4.1104,4.1182,4.1208,4.123,4.0932,4.0931,4.0929,0,0,4.0316,4.0357,4.0464,4.0508,4.0572,4.0586,4.0612,4.067,4.0687,4.081,4.0781,4.0858,4.1,4.1046,4.1088,4.1276,4.1249,4.1302,4.1397,4.1477,4.1498,4.1517,4.1583,4.1606,4.1317,4.1317,4.1317,0,4.0394,4.0524,4.0523,4.0621,4.0668,4.0634,4.0743,4.0785,4.0872,4.0906,4.0865,4.1041,4.1082,4.1233,4.1279,4.1315,4.1344,4.1294,4.1495,4.1514,4.1531,4.1594,4.1619,4.1323,4.1322,4.1322,4.1321,0,4.0616,4.0707,4.0786,4.087,4.0926,4.1029,4.1044,4.1101,4.1093,4.1111,4.1237,4.1284,4.1371,4.1407,4.14,4.1557,4.1533,4.1494,4.142,4.1563,4.1621,4.1646,4.1331,4.1329,4.1328,4.1326,0,0,4.0836,4.0917,4.0946,4.0983,4.1051,4.1122,4.1223,4.1307,4.1355,4.1417,4.1501,4.1622,4.1586,4.1634,4.1632,4.1703,4.1847,4.1655,4.1656,4.1688,4.2022,4.2049,4.2077,4.183,4.1835,4.1838,4.2016,0,4.1011,4.1187,4.1189,4.1352,4.1435,4.1404,4.1492,4.1544,4.1564,4.1637,4.166,4.1745,4.1691,4.172,4.1788,4.1815,4.1914,4.1802,4.1908,4.1912,4.1891,4.2108,4.2138,4.2303,4.2039,4.2043,4.2045,0,4.1238,4.1305,4.1476,4.1531,4.1566,4.1645,4.1721,4.1792,4.185,4.186,4.1913,4.19,4.2004,4.1928,4.207,4.1994,4.2037,4.2057,4.2063,4.2072,4.1986,4.2121,4.2356,4.238,4.2082,4.2079,4.2076,0,4.1379,4.1513,4.1631,4.1664,4.1732,4.1788,4.1819,4.1872,4.1922,4.1989,4.2022,4.2101,4.2143,4.2205,4.2214,4.2158,4.2356,4.2281,4.2366,4.2366,4.2408,4.2405,4.2652,4.2439,4.2439,4.2439,4.2438,0,4.1573,4.1678,4.1696,4.1769,4.1886,4.1887,4.2003,4.2029,4.2077,4.2154,4.2133,4.2207,4.2214,4.229,4.2298,4.2414,4.2434,4.2444,4.2445,4.2445,4.2444,4.2473,4.2461,4.2445,4.2444,4.2442,4.2441,0,4.175,4.1766,4.1893,4.1947,4.1963,4.2046,4.2092,4.2162,4.218,4.2278,4.2301,4.233,4.2418,4.2433,4.2537,4.2542,4.268,4.267,4.266,4.2658,4.2742,4.2733,4.3015,4.3051,4.2816,4.2818,4.282,0,4.1872,4.1952,4.2013,4.2063,4.2097,4.2178,4.2229,4.2233,4.2287,4.2358,4.2419,4.2505,4.2573,4.2716,4.2746,4.2825,4.2816,4.2909,4.2827,4.2825,4.2815,4.281,4.2817,4.2924,4.2926,4.2929,4.293,0,4.2086,4.209,4.2163,4.2239,4.2299,4.236,4.2417,4.2459,4.2471,4.2532,4.2622,4.2675,4.278,4.2866,4.2944,4.2976,4.2956,4.2956,4.2979,4.298,4.297,4.2975,4.2701,4.2949,4.2947,4.2946,4.2945,4.2944,4.2238,4.2307,4.2361,4.2443,4.2486,4.254,4.2607,4.2633,4.2707,4.2793,4.2791,4.2889,4.2944,4.3048,4.3085,4.3162,4.3132,4.3167,4.3175,4.3183,4.319,4.2959,4.3176,4.3176,4.3175,4.3175,4.3175,0,4.245,4.2482,4.2558,4.2638,4.2702,4.2676,4.2738,4.2794,4.288,4.2933,4.3,4.3102,4.3185,4.3221,4.3302,4.3356,4.3348,4.3377,4.3372,4.338,4.3213,4.3184,4.3382,4.3382,4.3382,4.3382,4.3382,4.3382,4.2567,4.2682,4.2692,4.2829,4.2861,4.2956,4.2993,4.3042,4.3084,4.3199,4.3267,4.3289,4.3336,4.342,4.3494,4.3502,4.3533,4.3565,4.3569,4.3413,4.3392,4.3372,4.3344,4.3572,4.3573,4.3729,4.3731,4.3732]},{"header":{"parameterUnit":"m.s-1","parameterCategory":1,"la1":30.2991,"la2":30.254,"lo1":-89.0895,"lo2":-89.0444,"dy":0.0017,"dx":0.0017,"nx":28,"ny":28,"refTime":"2025-05-29T21:00:00:Z","depth":0,"parameterNumber":3,"parameterNumberName":"V-component_of_WINDS"},"data":[0,0,0,0,0,0,0,0,0,0,0,0,0,0,0,0,0,0,0,0,0,0,0,0,0,0,0,0,0,0,0,0,0,0,0,0,0,0,0,0,0,0,0,0,0,0,0,0,0,0,0,0,0,0,0,0,0,0,0.0587,0.0588,0,0.0651,0.0651,0.0652,0.0647,0.0646,0.0645,0.0644,0.0715,0.0717,0.072,0,0,0,0,0,0,0,0,0,0,0,0,0,0.0465,0.0467,0.0587,0.0588,0.0588,0.0651,0.0651,0.0652,0.0647,0.0646,0.0645,0.0644,0.0714,0.0717,0.072,0,0,0,0,0,0,0,0,0,0,0,0,0,0.0522,0.0468,0.0587,0.0593,0.0594,0.065,0.0652,0.0653,0.0648,0.0646,0.0645,0.0643,0.0713,0.0717,0.0721,0.0775,0,0,0.0733,0.0735,0,0,0,0,0,0,0,0,0.0519,0.0527,0.0592,0.0593,0.0594,0.0639,0.0634,0.0694,0.0648,0.0628,0.0644,0.0643,0.0691,0.0697,0.0712,0.0779,0.0782,0.0734,0.0736,0.0738,0.0739,0,0,0,0,0,0,0,0.0515,0.0524,0.0612,0.0592,0.0594,0.0595,0.0601,0.0646,0.0667,0.0629,0.0629,0.0636,0.0692,0.0708,0.0714,0.0783,0.0734,0.0737,0.074,0.0741,0.0899,0.0901,0,0,0,0,0,0,0.0509,0.0521,0.061,0.0614,0.0552,0.0598,0.0605,0.0627,0.0666,0.0671,0.0638,0.0636,0.0702,0.0709,0.0716,0.0784,0.0738,0.0742,0.0744,0.0897,0.0899,0.0901,0,0,0,0,0,0,0.0506,0.0517,0.0608,0.0567,0.0579,0.0602,0.0626,0.0629,0.0645,0.0673,0.0677,0.065,0.0701,0.071,0.0761,0.0787,0.0744,0.0748,0.0895,0.0898,0.09,0.092,0,0,0,0,0,0,0.0503,0.0516,0.0536,0.0568,0.0581,0.065,0.0627,0.0631,0.0652,0.065,0.0686,0.069,0.0701,0.0755,0.0765,0.0792,0.0751,0.0893,0.0897,0.0899,0.0917,0.0923,0.0928,0,0,0,0,0,0.0499,0.054,0.0537,0.0548,0.0606,0.0651,0.0659,0.0669,0.0654,0.0675,0.0693,0.0689,0.0782,0.076,0.0771,0.08,0.0892,0.0896,0.0899,0.0915,0.0922,0.0928,0,0,0,0,0,0,0.0512,0.0544,0.0542,0.0594,0.062,0.065,0.0677,0.0676,0.0707,0.0705,0.0717,0.0725,0.0776,0.0792,0.0768,0.0855,0.0835,0.0841,0.0843,0.085,0.0855,0.0851,0.0754,0,0,0,0,0,0.0521,0.0553,0.058,0.0624,0.0637,0.0655,0.0675,0.068,0.0708,0.0719,0.074,0.0769,0.0804,0.0828,0.0862,0.0919,0.0928,0.0944,0.095,0.0954,0.096,0.0993,0.1001,0.0914,0.0914,0.0914,0,0,0.0541,0.0562,0.0582,0.0627,0.0648,0.0683,0.0664,0.0702,0.0728,0.0725,0.0774,0.0791,0.0823,0.0878,0.0903,0.0893,0.0985,0.0959,0.0962,0.0966,0.0998,0.1006,0.1013,0.0916,0.0916,0.0915,0,0,0.0594,0.0612,0.0652,0.0672,0.0703,0.0714,0.0724,0.0754,0.0765,0.0814,0.0813,0.0845,0.0905,0.0929,0.0949,0.1011,0.1009,0.1021,0.105,0.1082,0.1089,0.1095,0.1119,0.1127,0.1027,0.1027,0.1027,0,0.0615,0.0666,0.0672,0.071,0.0731,0.0728,0.0769,0.0789,0.083,0.0845,0.0833,0.0909,0.0931,0.0992,0.1006,0.1022,0.1035,0.1018,0.1087,0.1093,0.1099,0.1122,0.1131,0.1028,0.1028,0.1028,0.1028,0,0.069,0.0726,0.0754,0.0792,0.0816,0.0855,0.0869,0.0893,0.0895,0.0909,0.0959,0.0985,0.1024,0.1039,0.1042,0.11,0.1093,0.1084,0.1064,0.1109,0.1131,0.114,0.103,0.103,0.1029,0.1029,0,0,0.0756,0.0796,0.0807,0.0825,0.0858,0.0886,0.0926,0.0963,0.0984,0.1012,0.1047,0.1098,0.1089,0.1112,0.1118,0.1146,0.1195,0.1133,0.1134,0.1146,0.1263,0.1271,0.1281,0.1193,0.1195,0.1196,0.1261,0,0.0814,0.0882,0.089,0.0952,0.0985,0.0982,0.1017,0.1042,0.1055,0.1087,0.1102,0.1139,0.1124,0.1138,0.1165,0.1183,0.1219,0.1179,0.1228,0.123,0.1222,0.1292,0.1301,0.136,0.1269,0.127,0.1271,0,0.0891,0.0921,0.0985,0.1015,0.1029,0.106,0.1095,0.1125,0.1154,0.1161,0.1186,0.1189,0.1231,0.1207,0.1267,0.1239,0.126,0.1272,0.1274,0.1281,0.1255,0.1303,0.1379,0.1389,0.1285,0.1284,0.1283,0,0.0935,0.099,0.1037,0.1052,0.1086,0.1108,0.1124,0.1151,0.1173,0.1204,0.1219,0.1255,0.1276,0.1304,0.1317,0.1298,0.1376,0.1353,0.1386,0.1386,0.1404,0.1403,0.1487,0.1414,0.1414,0.1414,0.1413,0,0.1001,0.1041,0.1057,0.1086,0.1131,0.1139,0.1184,0.1199,0.1223,0.1256,0.1256,0.1287,0.1301,0.1334,0.1345,0.1393,0.1402,0.1411,0.1414,0.1412,0.1412,0.1428,0.1425,0.1416,0.1415,0.1415,0.1415,0,0.1058,0.107,0.112,0.1148,0.1156,0.1189,0.1214,0.1243,0.1255,0.1296,0.1307,0.1327,0.1366,0.1381,0.143,0.1436,0.1494,0.1492,0.1484,0.1485,0.1517,0.1515,0.1616,0.163,0.1546,0.1547,0.1547,0,0.11,0.1131,0.1162,0.1183,0.1199,0.1233,0.1255,0.1265,0.1288,0.1323,0.1348,0.1387,0.1419,0.1483,0.1503,0.154,0.1541,0.1573,0.1547,0.1544,0.1544,0.1542,0.1546,0.1579,0.158,0.1581,0.1581,0,0.1174,0.1178,0.1209,0.1243,0.1269,0.1297,0.1323,0.1341,0.1354,0.1381,0.1421,0.1445,0.1494,0.1534,0.1572,0.159,0.1589,0.1589,0.1599,0.1599,0.1594,0.1599,0.15,0.1588,0.1587,0.1587,0.1586,0.1586,0.1226,0.1254,0.128,0.1315,0.1336,0.136,0.1389,0.1404,0.1437,0.1477,0.148,0.1523,0.1552,0.1603,0.1623,0.1658,0.1649,0.1663,0.1667,0.1671,0.1674,0.1586,0.1665,0.1665,0.1664,0.1664,0.1664,0,0.1302,0.1318,0.135,0.1387,0.1415,0.1409,0.1438,0.1462,0.15,0.1526,0.1557,0.1603,0.1641,0.1664,0.1702,0.1726,0.1727,0.1737,0.1736,0.1741,0.1679,0.1667,0.1735,0.1735,0.1735,0.1735,0.1735,0.1735,0.1345,0.1391,0.1399,0.1456,0.1473,0.1514,0.1531,0.1555,0.1576,0.1627,0.1658,0.1671,0.1697,0.1737,0.1773,0.1778,0.1794,0.1804,0.181,0.1752,0.1745,0.1738,0.1727,0.1807,0.1807,0.1869,0.1869,0.187]}]]